DW7380 Weather Reports


time (UTC)temp
F
wind
direction
speed
knots
gust
knots
rain 1hr
in
rain 24hr
in
rain mn
in
humidity
%
barometer
mb
20210723151546 65 49 0.0 4.3 0.00 0.18 0.00 67 1008.7
20210723151045 66 49 4.3 7.0 0.00 0.18 0.00 62 1008.8
20210723150545 66 25 7.0 11.3 0.00 0.18 0.00 58 1008.8
20210723150046 67 39 5.2 13.0 0.00 0.18 0.00 54 1008.7
20210723145545 68 218 0.0 7.0 0.00 0.18 0.00 53 1008.5
20210723145046 68 264 5.2 7.8 0.00 0.18 0.00 52 1008.5
20210723144545 67 267 0.0 10.4 0.00 0.18 0.00 52 1008.5
20210723144046 67 359 8.7 8.7 0.00 0.18 0.00 55 1008.5
20210723143545 67 245 0.9 7.0 0.00 0.18 0.00 56 1008.5
20210723143045 67 4 0.0 6.1 0.00 0.18 0.00 56 1008.5
20210723142545 67 237 0.0 11.3 0.00 0.18 0.00 56 1008.5
20210723142046 66 223 0.0 8.7 0.00 0.18 0.00 57 1008.5
20210723141546 66 235 3.5 8.7 0.00 0.18 0.00 57 1008.5
20210723141045 66 35 7.8 8.7 0.00 0.18 0.00 57 1008.5
20210723140544 66 254 4.3 7.0 0.00 0.18 0.00 57 1008.5
20210723140045 66 359 0.0 5.2 0.00 0.18 0.00 57 1008.5
20210723135545 66 244 3.5 9.6 0.00 0.18 0.00 57 1008.5
20210723135046 66 254 0.0 8.7 0.00 0.18 0.00 57 1008.5
20210723134545 67 39 0.0 6.1 0.00 0.18 0.00 58 1008.5
20210723134044 66 240 0.0 7.8 0.00 0.18 0.00 58 1008.4
20210723133546 66 175 0.0 2.6 0.00 0.18 0.00 59 1008.5
20210723133045 66 215 0.9 6.1 0.00 0.18 0.00 61 1008.6
20210723132546 65 214 0.0 8.7 0.00 0.18 0.00 61 1008.6
20210723132045 65 243 4.3 10.4 0.00 0.18 0.00 62 1008.6
20210723131545 65 228 0.9 9.6 0.00 0.18 0.00 62 1008.5
20210723131045 65 258 7.0 12.2 0.00 0.18 0.00 59 1008.6
20210723130546 66 201 0.9 8.7 0.00 0.18 0.00 60 1008.6
20210723130046 65 266 0.0 11.3 0.00 0.18 0.00 61 1008.7
20210723125545 66 251 4.3 10.4 0.00 0.18 0.00 60 1008.6
20210723125045 66 241 0.9 8.7 0.00 0.18 0.00 60 1008.6
20210723124546 66 250 7.8 10.4 0.00 0.18 0.00 60 1008.6
20210723124045 66 283 3.5 7.0 0.00 0.18 0.00 61 1008.5
20210723123545 66 272 6.1 13.0 0.00 0.18 0.00 59 1008.7
20210723123046 66 359 10.4 13.9 0.00 0.18 0.00 59 1008.7
20210723122546 65 17 0.9 7.0 0.00 0.18 0.00 59 1008.6
20210723122045 65 270 0.0 9.6 0.00 0.18 0.00 62 1008.7
20210723121545 64 220 2.6 9.6 0.00 0.18 0.00 59 1008.8
20210723121045 64 260 0.0 8.7 0.00 0.18 0.00 60 1008.8
20210723120545 64 280 5.2 8.7 0.00 0.18 0.00 59 1008.9
20210723120046 64 13 2.6 7.0 0.00 0.18 0.00 61 1008.9
20210723115545 63 4 0.9 8.7 0.00 0.18 0.00 62 1008.9
20210723115045 63 31 3.5 3.5 0.00 0.18 0.00 64 1008.9
20210723114547 63 274 1.7 8.7 0.00 0.18 0.00 66 1008.9
20210723114045 63 280 0.0 6.1 0.00 0.18 0.00 69 1008.9
20210723113545 62 241 4.3 7.0 0.00 0.19 0.00 71 1008.9
20210723113045 62 8 0.0 8.7 0.00 0.19 0.00 69 1008.8
20210723112546 62 49 3.5 8.7 0.00 0.19 0.00 70 1008.9
20210723112046 62 12 4.3 7.0 0.00 0.19 0.00 72 1009.0
20210723111545 62 22 3.5 7.8 0.00 0.19 0.00 72 1009.0
20210723111045 62 216 1.7 13.9 0.00 0.19 0.00 72 1009.1
20210723110545 62 279 7.8 13.9 0.00 0.19 0.00 72 1009.0
20210723110046 61 12 7.0 13.0 0.00 0.19 0.00 73 1009.2
20210723105545 61 284 3.5 8.7 0.00 0.19 0.00 72 1009.0
20210723105045 61 271 5.2 7.0 0.01 0.19 0.00 72 1009.0
20210723104546 60 284 0.0 4.3 0.02 0.19 0.00 74 1008.9
20210723104045 60 279 2.6 10.4 0.02 0.19 0.00 76 1008.9
20210723103546 59 268 2.6 7.0 0.02 0.19 0.00 81 1008.9
20210723103045 59 270 0.0 0.9 0.04 0.19 0.00 83 1008.8
20210723102546 59 267 0.0 6.1 0.05 0.19 0.00 82 1008.9
20210723102046 59 273 5.2 7.0 0.05 0.19 0.00 82 1008.9
20210723101545 59 15 2.6 7.0 0.05 0.19 0.00 84 1008.9
20210723101046 59 14 4.3 9.6 0.07 0.19 0.00 83 1008.9
20210723100545 58 40 5.2 7.0 0.07 0.19 0.00 82 1008.7
20210723100045 58 37 4.3 7.8 0.07 0.19 0.00 83 1008.7
20210723095545 58 25 0.0 4.3 0.07 0.19 0.00 85 1008.8
20210723095046 58 4 3.5 5.2 0.05 0.18 0.00 85 1008.9
20210723094546 58 8 0.0 7.8 0.04 0.17 0.00 84 1008.6
20210723094045 59 28 4.3 6.1 0.04 0.17 0.00 83 1008.5
20210723093545 59 46 2.6 8.7 0.04 0.17 0.00 81 1008.5
20210723093045 60 4 9.6 12.2 0.02 0.14 0.00 77 1008.6
20210723092546 63 359 8.7 13.9 0.01 0.14 0.00 69 1008.5
20210723092045 64 30 4.3 6.1 0.01 0.14 0.00 62 1007.9
20210723091545 65 10 0.0 8.7 0.01 0.14 0.00 58 1007.9
20210723091044 66 24 7.0 10.4 0.00 0.12 0.00 59 1007.8
20210723090545 66 4 7.0 13.0 0.00 0.12 0.00 59 1007.7
20210723090045 66 16 0.0 7.8 0.00 0.12 0.00 57 1007.5
20210723085545 66 241 0.0 9.6 0.00 0.12 0.00 55 1007.5
20210723085046 66 249 0.0 8.7 0.00 0.12 0.00 56 1007.4
20210723084545 66 279 6.1 7.8 0.00 0.12 0.00 58 1007.5
20210723084045 66 267 6.1 11.3 0.00 0.12 0.00 59 1007.5
20210723083546 66 23 8.7 13.9 0.00 0.12 0.00 59 1007.4
20210723083046 66 239 0.0 10.4 0.00 0.12 0.00 60 1007.3
20210723082545 65 217 7.0 9.6 0.00 0.12 0.00 60 1007.4
20210723082045 65 9 6.1 12.2 0.00 0.12 0.00 59 1007.5
20210723081545 65 274 1.7 11.3 0.00 0.12 0.00 61 1007.5
20210723081046 65 255 3.5 10.4 0.00 0.12 0.00 61 1007.5
20210723080546 65 204 8.7 10.4 0.00 0.12 0.00 61 1007.5
20210723080045 65 11 4.3 12.2 0.00 0.12 0.00 63 1007.5
20210723075545 65 16 1.7 7.0 0.00 0.12 0.00 64 1007.5
20210723075046 65 23 3.5 7.0 0.00 0.12 0.00 64 1007.5
20210723074545 65 253 1.7 10.4 0.00 0.12 0.00 62 1007.6
20210723074045 65 12 3.5 7.8 0.00 0.12 0.00 63 1007.5
20210723073546 64 35 6.1 12.2 0.00 0.12 0.00 63 1007.6
20210723073044 64 271 5.2 10.4 0.00 0.12 0.00 61 1007.6
20210723072545 64 273 3.5 13.9 0.00 0.12 0.00 63 1007.5
20210723072046 64 10 6.1 13.9 0.00 0.12 0.00 63 1007.6
20210723071545 64 270 0.9 9.6 0.00 0.12 0.00 66 1007.5
20210723071045 64 4 4.3 7.8 0.00 0.12 0.00 66 1007.5
20210723070546 64 30 3.5 10.4 0.00 0.12 0.00 66 1007.5
20210723070046 64 359 10.4 10.4 0.00 0.12 0.00 66 1007.5
20210723065544 63 19 6.1 11.3 0.00 0.12 0.00 66 1007.4
20210723065045 63 275 7.8 10.4 0.00 0.12 0.00 66 1007.5
20210723064545 64 279 2.6 11.3 0.00 0.12 0.00 66 1007.5
20210723064045 64 31 2.6 5.2 0.00 0.12 0.00 70 1007.4
20210723063548 63 4 2.6 9.6 0.00 0.12 0.00 68 1007.4
20210723063046 63 268 1.7 10.4 0.00 0.12 0.00 68 1007.4
20210723062544 63 248 6.1 7.8 0.00 0.12 0.00 69 1007.4
20210723062045 63 259 0.0 7.8 0.00 0.12 0.00 69 1007.3
20210723061546 63 14 2.6 8.7 0.00 0.12 0.00 69 1007.3
20210723061045 63 247 4.3 9.6 0.00 0.12 0.00 68 1007.4
20210723060545 63 15 4.3 8.7 0.00 0.12 0.00 68 1007.3
20210723060045 63 12 6.1 8.7 0.00 0.12 0.00 70 1007.3
20210723055546 62 283 2.6 8.7 0.00 0.12 0.00 72 1007.3
20210723055046 62 21 8.7 8.7 0.00 0.12 0.00 73 1007.3
20210723054545 62 36 6.1 8.7 0.00 0.12 0.00 74 1007.3
20210723054045 62 276 3.5 6.1 0.00 0.12 0.00 75 1007.3
20210723053546 61 359 0.0 9.6 0.00 0.12 0.00 75 1007.3
20210723053045 61 284 6.1 9.6 0.00 0.12 0.00 75 1007.3
20210723052545 61 266 2.6 7.0 0.00 0.12 0.00 76 1007.3
20210723052046 61 250 6.1 7.0 0.00 0.12 0.00 77 1007.3
20210723051545 61 11 7.0 7.8 0.00 0.12 0.00 77 1007.3
20210723051045 61 258 0.0 6.1 0.00 0.12 0.00 78 1007.2
20210723050545 60 278 1.7 9.6 0.00 0.12 0.00 77 1007.2
20210723050046 60 256 2.6 7.8 0.00 0.12 0.00 77 1007.3
20210723045546 60 273 7.0 8.7 0.00 0.12 0.00 77 1007.3
20210723045044 60 359 3.5 10.4 0.00 0.12 0.00 77 1007.2
20210723044544 60 280 0.0 8.7 0.00 0.12 0.00 77 1007.2
20210723044045 60 12 0.9 6.1 0.00 0.12 0.00 78 1007.1
20210723043546 60 273 0.9 6.1 0.00 0.12 0.00 78 1007.1
20210723043045 60 253 0.0 6.1 0.00 0.12 0.00 78 1007.1
20210723042546 60 270 0.9 7.0 0.00 0.12 0.00 78 1007.1
20210723042045 60 280 0.0 7.0 0.00 0.12 0.00 79 1007.1
20210723041545 59 10 0.0 7.8 0.00 0.12 0.00 79 1007.1
20210723041044 59 27 3.5 7.0 0.00 0.12 0.00 80 1007.0
20210723040545 59 15 3.5 9.6 0.00 0.12 0.00 79 1007.1
20210723040046 59 24 7.0 7.8 0.00 0.12 0.00 80 1007.1
20210723035546 59 10 4.3 5.2 0.00 0.12 0.00 80 1007.0
20210723035045 59 14 0.0 6.1 0.00 0.12 0.00 80 1007.0
20210723034545 59 276 0.0 5.2 0.00 0.12 0.00 81 1007.0
20210723034045 58 270 1.7 6.1 0.00 0.12 0.00 81 1007.0
20210723033545 58 22 0.0 7.0 0.00 0.12 0.00 81 1007.0
20210723033046 58 285 0.0 3.5 0.00 0.12 0.00 81 1006.9
20210723032545 58 280 1.7 9.6 0.00 0.12 0.00 80 1007.0
20210723032045 58 258 3.5 7.0 0.00 0.12 0.00 80 1006.9
20210723031546 58 281 2.6 7.8 0.00 0.12 0.00 80 1006.9
20210723031046 58 359 0.0 7.0 0.00 0.12 0.00 81 1006.9
20210723030544 58 4 0.0 3.5 0.00 0.12 0.00 81 1007.0
20210723030045 58 4 1.7 9.6 0.00 0.12 0.00 81 1007.0
20210723025545 58 285 5.2 5.2 0.00 0.12 0.00 81 1006.9
20210723025046 58 249 0.9 6.1 0.00 0.12 0.00 80 1006.9
20210723024545 58 4 2.6 9.6 0.00 0.12 0.00 80 1006.9
20210723024045 58 240 7.0 8.7 0.00 0.12 0.00 80 1007.0
20210723023545 58 283 5.2 5.2 0.00 0.12 0.00 80 1007.0
20210723023046 58 276 0.9 8.7 0.00 0.12 0.00 80 1007.0
20210723022545 58 32 3.5 8.7 0.00 0.12 0.00 80 1006.9
20210723022044 58 4 2.6 4.3 0.00 0.12 0.00 79 1006.9
20210723021546 58 283 5.2 7.8 0.00 0.12 0.00 79 1006.9
20210723021047 58 266 5.2 8.7 0.00 0.12 0.00 78 1006.9
20210723020545 58 16 3.5 8.7 0.00 0.12 0.00 77 1006.9
20210723020045 58 15 3.5 7.0 0.00 0.12 0.00 77 1006.9
20210723015545 58 28 4.3 9.6 0.00 0.12 0.00 76 1006.9
20210723015045 58 359 5.2 9.6 0.00 0.12 0.00 76 1006.9
20210723014546 58 4 5.2 8.7 0.00 0.12 0.00 77 1006.8
20210723014044 58 273 0.9 9.6 0.00 0.12 0.00 77 1006.9
20210723013546 58 29 3.5 9.6 0.00 0.12 0.00 76 1007.0
20210723013044 58 285 6.1 9.6 0.00 0.12 0.00 77 1007.0
20210723012547 58 252 0.0 5.2 0.00 0.12 0.00 78 1006.9
20210723012045 58 265 1.7 5.2 0.00 0.12 0.00 78 1006.9
20210723011546 58 24 0.9 2.6 0.00 0.12 0.00 79 1006.9
20210723011045 58 24 0.0 3.5 0.00 0.12 0.00 78 1006.8
20210723010545 58 27 2.6 5.2 0.00 0.12 0.00 78 1006.8
20210723010045 58 285 2.6 6.1 0.00 0.12 0.00 77 1006.7
20210723005545 58 258 1.7 7.8 0.00 0.12 0.00 77 1006.8
20210723005045 58 234 1.7 6.1 0.00 0.12 0.00 76 1006.7
20210723004546 59 4 0.0 3.5 0.00 0.12 0.00 76 1006.7
20210723004045 59 4 3.5 5.2 0.00 0.12 0.00 75 1006.7
20210723003544 59 8 4.3 8.7 0.00 0.12 0.00 74 1006.6
20210723003047 60 24 4.3 9.6 0.00 0.12 0.00 74 1006.6
20210723002546 60 279 0.0 7.8 0.00 0.12 0.00 74 1006.7
20210723002045 60 267 3.5 9.6 0.00 0.12 0.00 73 1006.6
20210723001544 60 270 1.7 11.3 0.00 0.12 0.00 73 1006.7
20210723001046 60 35 4.3 7.0 0.00 0.12 0.00 73 1006.6
20210723000544 60 268 0.9 5.2 0.00 0.12 0.00 73 1006.6
20210723000045 60 79 0.0 6.1 0.00 0.12 0.00 74 1006.5
20210722235546 60 42 0.0 6.1 0.00 0.12 0.00 74 1006.5
20210722235045 60 274 0.0 7.0 0.00 0.12 0.00 74 1006.5
20210722234546 60 244 0.0 7.0 0.00 0.12 0.00 74 1006.5
20210722234046 60 21 2.6 7.0 0.00 0.12 0.00 74 1006.5
20210722233544 60 20 0.0 4.3 0.00 0.12 0.00 74 1006.5
20210722233045 61 263 0.9 8.7 0.00 0.12 0.00 73 1006.5
20210722232546 61 285 2.6 8.7 0.00 0.12 0.00 73 1006.4
20210722232044 61 266 1.7 8.7 0.00 0.12 0.00 74 1006.4
20210722231545 61 280 1.7 7.8 0.00 0.12 0.00 74 1006.5
20210722231046 61 14 4.3 7.8 0.00 0.12 0.00 74 1006.4
20210722230545 61 359 4.3 8.7 0.00 0.12 0.00 75 1006.4
20210722230045 61 8 1.7 7.8 0.00 0.12 0.00 76 1006.4
20210722225544 61 27 2.6 11.3 0.00 0.12 0.00 76 1006.4
20210722225046 61 10 7.0 7.8 0.00 0.12 0.00 76 1006.4
20210722224545 62 4 4.3 7.8 0.00 0.12 0.00 77 1006.3
20210722224045 62 284 2.6 7.8 0.00 0.12 0.00 76 1006.3
20210722223546 62 11 1.7 6.1 0.00 0.12 0.00 76 1006.3
20210722223045 62 25 4.3 7.0 0.00 0.12 0.00 75 1006.3
20210722222545 62 271 6.1 9.6 0.00 0.12 0.00 75 1006.4
20210722222048 62 262 0.0 0.0 0.00 0.12 0.00 76 1006.3
20210722221544 62 8 0.0 0.0 0.00 0.12 0.00 77 1006.3
20210722221045 62 284 0.0 0.0 0.00 0.12 0.00 77 1006.3
20210722220545 62 278 0.0 0.0 0.00 0.12 0.00 77 1006.3
20210722220046 62 15 0.0 0.0 0.00 0.12 0.00 78 1006.2
20210722215546 62 12 0.0 0.0 0.00 0.12 0.00 78 1006.2
20210722215045 62 12 0.0 0.0 0.00 0.12 0.00 79 1006.2
20210722214546 62 11 0.0 0.0 0.00 0.12 0.00 79 1006.2
20210722214045 62 278 0.0 0.0 0.00 0.12 0.00 80 1006.2
20210722213544 62 278 0.0 0.0 0.00 0.12 0.00 81 1006.2
20210722213045 62 278 0.0 0.0 0.00 0.12 0.00 80 1006.2
20210722212546 62 253 0.0 0.0 0.00 0.12 0.00 81 1006.2
20210722212046 62 253 0.0 0.0 0.00 0.12 0.00 81 1006.1
20210722211544 62 253 0.0 0.0 0.00 0.12 0.00 81 1006.2
20210722211045 62 253 0.0 0.0 0.00 0.12 0.00 81 1006.2
20210722210545 62 255 0.0 0.0 0.00 0.12 0.00 82 1006.2
20210722210045 62 255 0.0 0.0 0.00 0.12 0.00 82 1006.1
20210722205545 62 255 0.0 0.0 0.00 0.12 0.00 83 1006.1
20210722205046 62 10 0.0 0.0 0.00 0.12 0.00 83 1006.0
20210722204545 62 10 0.0 0.0 0.00 0.12 0.00 83 1006.1
20210722204045 62 10 0.0 0.0 0.00 0.12 0.00 83 1006.1
20210722203546 62 23 0.0 0.0 0.00 0.12 0.00 83 1006.1
20210722203045 62 16 0.0 0.0 0.00 0.12 0.00 83 1006.0
20210722202544 62 16 0.0 0.0 0.00 0.12 0.00 83 1006.0
20210722202044 62 16 0.0 0.0 0.00 0.12 0.00 83 1006.0
20210722201546 62 16 0.0 0.0 0.00 0.12 0.00 84 1006.1
20210722201045 62 16 0.0 0.0 0.00 0.12 0.00 84 1006.0
20210722200545 62 16 0.0 0.0 0.00 0.12 0.00 83 1006.0
20210722200046 62 16 0.0 0.0 0.00 0.12 0.00 83 1005.9
20210722195546 62 16 0.0 0.0 0.00 0.12 0.00 83 1005.9
20210722195044 62 9 0.0 0.0 0.00 0.12 0.00 84 1005.8
20210722194545 62 35 0.0 0.0 0.00 0.12 0.00 83 1005.7
20210722194045 62 8 0.0 0.0 0.00 0.12 0.00 83 1005.7
20210722193544 63 4 0.0 0.0 0.00 0.12 0.00 83 1005.7
20210722193046 63 279 0.0 7.0 0.00 0.12 0.00 83 1005.7
20210722192546 63 23 0.0 5.2 0.00 0.12 0.00 83 1005.6
20210722192045 63 283 3.5 4.3 0.00 0.12 0.00 84 1005.6
20210722191545 63 284 0.0 0.0 0.00 0.12 0.00 85 1005.4
20210722191046 63 281 0.0 0.0 0.00 0.12 0.00 85 1005.5
20210722190545 63 15 0.0 0.0 0.00 0.12 0.00 85 1005.4
20210722190045 63 26 0.0 0.0 0.00 0.12 0.00 85 1005.4
20210722185545 63 27 0.0 0.0 0.00 0.12 0.00 84 1005.4
20210722185045 63 26 0.0 0.0 0.00 0.12 0.00 84 1005.3
20210722184546 63 26 0.0 0.0 0.00 0.12 0.00 84 1005.4
20210722184046 63 27 0.0 0.0 0.00 0.12 0.00 83 1005.4
20210722183545 63 18 0.0 0.0 0.00 0.12 0.00 83 1005.3
20210722183044 63 254 0.0 0.0 0.01 0.12 0.00 83 1005.4
20210722182546 63 4 0.0 0.0 0.11 0.12 0.00 84 1005.3
20210722182045 63 4 0.0 3.5 0.11 0.12 0.00 84 1005.3
20210722181544 63 4 0.0 4.3 0.11 0.12 0.00 84 1005.2
20210722181045 64 29 0.0 0.0 0.11 0.12 0.00 83 1005.2
20210722180546 64 29 0.0 0.0 0.11 0.12 0.00 82 1005.1
20210722180044 65 278 0.0 5.2 0.11 0.12 0.00 82 1005.1
20210722175545 65 278 0.0 8.7 0.11 0.12 0.00 81 1005.0
20210722175044 65 265 6.1 9.6 0.11 0.12 0.00 82 1004.9
20210722174545 65 274 2.6 7.8 0.11 0.12 0.00 82 1004.9
20210722174046 65 10 3.5 8.7 0.11 0.12 0.00 80 1004.9
20210722173545 65 265 7.8 16.5 0.11 0.12 0.00 78 1005.2
20210722173044 66 264 7.8 12.2 0.09 0.11 0.00 75 1005.5
20210722172544 68 242 4.3 9.6 0.00 0.01 0.00 77 1005.2
20210722172046 68 220 3.5 10.4 0.00 0.01 0.00 76 1005.2
20210722171546 68 94 0.0 5.2 0.00 0.01 0.00 76 1005.3
20210722171045 68 218 0.9 6.1 0.00 0.01 0.00 76 1005.3
20210722170545 68 216 0.0 13.9 0.00 0.01 0.00 76 1005.4
20210722170045 68 190 0.0 5.2 0.00 0.01 0.00 76 1005.4
20210722165545 68 173 5.2 7.0 0.00 0.01 0.00 75 1005.4
20210722165046 68 110 0.0 8.7 0.00 0.01 0.00 75 1005.5
20210722164545 68 197 0.0 10.4 0.00 0.01 0.00 74 1005.4
20210722164046 68 112 3.5 9.6 0.00 0.01 0.00 74 1005.5
20210722163546 68 220 10.4 11.3 0.00 0.01 0.00 74 1005.6
20210722163044 68 172 0.0 13.9 0.00 0.01 0.00 74 1005.5
20210722162546 68 206 0.0 8.7 0.00 0.01 0.00 74 1005.6
20210722162044 68 246 0.0 7.0 0.00 0.01 0.00 74 1005.8
20210722161545 68 199 5.2 7.8 0.00 0.01 0.00 73 1005.7
20210722161046 68 190 4.3 11.3 0.00 0.01 0.00 73 1005.8
20210722160546 68 274 10.4 10.4 0.00 0.01 0.00 73 1005.9
20210722160045 68 260 0.0 6.1 0.00 0.01 0.00 72 1005.9
20210722155545 68 217 3.5 7.8 0.00 0.01 0.00 71 1006.0
20210722155045 68 236 3.5 15.6 0.00 0.01 0.00 71 1006.2
20210722154546 68 175 3.5 10.4 0.00 0.01 0.00 70 1006.1
20210722154045 68 236 4.3 13.0 0.00 0.01 0.00 70 1006.1
20210722153544 68 136 0.0 12.2 0.00 0.01 0.00 70 1006.0
20210722153046 68 169 8.7 16.5 0.00 0.01 0.00 69 1006.2
20210722152544 68 182 0.0 9.6 0.00 0.01 0.00 69 1006.2
20210722152045 68 258 0.0 12.2 0.00 0.01 0.00 69 1006.2